Погода в Нижнеудинске

Погода в Нижнеудинске : погода сейчас, прогноз погоды и архив. Всё, что Вы хотите узнать о погоде в Нижнеудинске!

Хотите узнать прогноз погоды в Нижнеудинске? Тогда Вам сюда: Погода в Нижнеудинске

Поиск расширенной информации на нашем сайте:

Другие новости

Новости СМИ2

Главная страница сайта

Новости сайта

03.07.2017

Напоминаем, что на нашем специализированном сайте Метеоцентр.Азия вы можете получить высокодетализированные автоматические прогнозы погоды по пунктам России, СНГ и мира в авиационном формате (включающие направление и скорость ветра, видимость, явления погоды, количество и форму облачности, нижнюю и верхнюю границу облачности).


Погода в Нижнеудинске - сегодня

Время (UTC), дата Ветер
(°,м/с) 
Видим.   Явления Облачность Т
(°С)
Тd
(°С)
f(%) Тe
(°С)
Pmin
(гПа)
dP
(гПа)
Po
(мм)
O2
(г/м3)
Тmin Tmax R s Состояние
почвы
06 18.08.17 250 (З) 20000 м  {туман}  10/8 600 м кучево-дожд., верхняя 
[Cb cap|Ci fib]
+17.7 +9.7 59 +20  1016.8  -0.3  727  273           
09 18.08.17 020 (С) 20000 м    8/5 600 м кучево-дожд., верхняя 
[Cb cap|Ci fib]
+18.8 +9.2 54 +21  1015.4  -1.1  726  272           
12 18.08.17 тихо ()   20000 м    ясно 
+16.3 +10.4 68 +19  1015.5  -0.3  726  274    +20.8       
15 18.08.17 180 (Ю) н/о    ясно 
+10 +8.2 89 +11  1017  0.4  726  281           
18 18.08.17 тихо ()   н/о  дымка  ясно 
+6.7 +5.2 90 +7  1017  -0.7  726  284           
21 18.08.17 200 (Ю) н/о  дымка  6/0 верхняя 
[Ci fib]
+6.2 +4.7 90 +7  1016.2  -0.8  725  285           
00 19.08.17 130 (ЮВ) 0500 м  туман  ясно 
+7.3 +5.8 90 +8  1015.6  -0.4  725  283  +6.2        мокрая 
03 19.08.17 130 (ЮВ) 0500 м  в посл. час туман  10/10 300 м 
[St]
+11.4 +9.9 90 +14  1014  -0.7  724  278           
06 19.08.17 140 (ЮВ) 20000 м  {туман}  6/4 1000 м кучево-дожд., верхняя 
[Cb cap|Ci fib]
+20 +10.6 55 +23  1010.3  -2.2  723  269           
09 19.08.17 170 (Ю) 20000 м    10/4 1000 м кучево-дожд., средняя, верхняя 
[Cb cap|Ac trans|Ci fib]
+21.7 +9.3 45 +23  1008.7  -1.3  722  268           
12 19.08.17 тихо ()   20000 м    10/3 600 м кучево-дожд., средняя, верхняя 
[Cb cap|Ac trans|Ci fib]
+18.8 +12.3 66 +24  1008.9  -0.2  721  270    +22.5       
15 19.08.17 тихо ()   н/о    10/3 600 м кучево-дожд., средняя, верхняя 
[Cb cap|Ac trans|Ci fib]
+16.2 +11.2 72 +20  1009.6  0.3  722  272           
18 19.08.17 300 (СЗ) н/о    10/5 600 м кучево-дожд., верхняя 
[Cb cap|Ci fib]
+14.1 +11.4 84 +19  1009.6  -0.4  721  274           
21 19.08.17 330 (СЗ) н/о  ливневой дождь  10/10 600 м кучево-дожд. 
[Cb cap]
+13.4 +11.5 88 +19  1009.2  -0.5  721  275           
00 20.08.17 тихо ()   20000 м  в посл. час ливневой дождь  10/9 600 м кучево-дожд., верхняя 
[Cb cap|Ci sp]
+13.7 +12.2 91 +19  1009.4  0.3  721  274  +13.1    11    мокрая 
03 20.08.17 310 (СЗ) 20000 м    10/10 600 м кучево-дожд. 
[Cb cap]
+14.5 +12 85 +20  1009.5  0.2  721  274           
06 20.08.17 тихо ()   20000 м  в посл. час ливневой дождь  10/10 600 м кучево-дожд. 
[Cb cap]
+15 +12.7 86 +21  1008.6  -0.8  721  273           
09 20.08.17 310 (СЗ) 20000 м    10/10 600 м кучево-дожд. 
[Cb cap]
+17.1 +11.1 68 +21  1008.1  -0.2  721  271           
12 20.08.17 300 (СЗ) 20000 м  {ливн. осадки}  10/8 600 м кучево-дожд., верхняя 
[Cb cap|Ci sp]
+14.7 +10.3 75 +17  1009.8  1.2  722  274    +17.2     
15 20.08.17 310 (СЗ) н/о    10/10 600 м кучево-дожд. 
[Cb cap]
+13.8 +8.7 71 +14  1010.8  0.9  722  275           
18 20.08.17 320 (СЗ) н/о    8/4 600 м кучево-дожд., верхняя 
[Cb cap|Ci fib]
+12 +8.9 81 +13  1011.4  0.2  722  277           
21 20.08.17 300 (СЗ) н/о    10/6 600 м кучево-дожд., средняя 
[Cb cap|Ac As]
+12 +6.7 70 +12  1012.6  1.2  723  278           
00 21.08.17 310 (СЗ) 20000 м    10/10 600 м кучево-дожд. 
[Cb cap]
+11.9 +5.6 65 +12  1013.6  0.9  724  279  +11.3        мокрая 
03 21.08.17 310 (СЗ) 20000 м    10/10 600 м кучево-дожд. 
[Cb cap]
+11.9 +5.9 67 +12  1014.8  1.1  725  279           
06 21.08.17 290 (З) 20000 м  {ливн. осадки}  10/10 600 м кучево-дожд. 
[Cb cap]
+12.8 +5.6 62 +13  1015.2  0.6  725  278           
Время (UTC), дата Ветер
(°,м/с) 
Видим.   Явления Облачность Т
(°С)
Тd
(°С)
f(%) Тe
(°С)
Pmin
(гПа)
dP
(гПа)
Po
(мм)
O2
(г/м3)
Тmin Tmax R s Состояние
почвы

Для получения пояснительной информации подведите курсор к названию столбца.

ПОГОДА в Нижнеудинске - архив

Всё, что Вы хотите узнать о погоде в Нижнеудинске - удобно и подробно!

Выберите нужную дату (начиная с 1 января 2015* года) и нажмите кнопку "Найти".
Будут отображены архивные сводки погоды по пункту Нижнеудинск, начиная с указанной даты.


Отображать данные в формате CSV (для использования в таблицах Excel)


Внимание! Наш архив погоды предназначен исключительно для личного некоммерческого использования в познавательных целях. Если Вам необходимы официальные справки о состоянии погоды (для производственных, юридических, коммерческих и т.п. целей), обращайтесь в органы Росгидромета.

*Примечание: данная дата относится к архиву по метеостанциям СССР (Россия, СНГ, Балтия).
Архив по метеостанциям Зарубежной Европы и Азии (кроме Китая) хранится 10 дней, по другим регионам земного шара (Китай, Африка, Америка, Австралия, Океания) - 1 день.

Нижнеудинск - район местоположения метеостанции


Название, широта, долгота, высота метеостанции:
Нижнеудинск 54.9°ш. 99°д. 411 м над ур. моря [Российская Федерация]

Дополнительная информация

В oтличие oт бoльшинства пoгoдных сайтoв мы публикуем пoдрoбную метеoинфoрмацию в детальнoм прoфессиoнальнoм фoрмате.

Характеристики температуры и влажнoсти вoздуха измеряются на высoте 2 м в тени вдали oт зданий и деревьев.
Скoрoсть ветра измеряется на высoте 10 м (на урoвне рoста челoвека скoрoсть ветра ниже в 1.5-2 раза). Если метеoстанция нахoдится в гoрoде или в лесу, тo скoрoсть ветра занижена на 2-4 м/с пo сравнению с oткрытым местoм. Скoрoсть ветра над акватoриями крупных рек и oзёр, а также на вершинах хoлмoв на 2-5 м/с выше, чем в oбычных услoвиях.
Атмoсфернoе давление в разных тoчках местнoсти мoжет значительнo oтличаться oт давления на метеoстанции, в зависимoсти oт услoвий рельефа (при пoдъёме на 10 м давление пoнижается примернo на 1 мм рт.ст.).